Newton, KS

10:27 AM CST on December 12, 2019 (GMT -0600)
Newton City County

Weather History for KEWK - October, 2019

Change the Weather History Date:

Monday, October 14, 2019

  Actual Average Record
Temperature  
Mean Temperature 61 °F -  
Max Temperature 78 °F 66 °F 84 °F (2005)
Min Temperature 44 °F 45 °F 30 °F (2018)
Degree Days  
Heating Degree Days 4    
Growing Degree Days 11 (Base 50)    
Moisture  
Dew Point 50 °F    
Average Humidity 70    
Maximum Humidity 90    
Minimum Humidity 43    
Precipitation  
Precipitation 0.00 in - - ()
Sea Level Pressure  
Sea Level Pressure 29.89 in    
Wind  
Wind Speed 11 mph (SSE)    
Max Wind Speed 23 mph    
Max Gust Speed 30 mph    
Visibility 9 miles    
Events      
Averages and records for this station are not official NWS values.
T = Trace of Precipitation, MM = Missing Value Source: NWS Daily Summary

Daily Weather History Graph

Daily Weather History Graph

Search for Another Location

Airport or City:

Astronomy

Oct. 14, 2019 Rise Set
Actual Time 7:36 AM CDT 6:53 PM CDT
Civil Twilight 7:10 AM CDT 7:19 PM CDT
Nautical Twilight 6:39 AM CDT 7:50 PM CDT
Astronomical Twilight 6:09 AM CDT 8:20 PM CDT
Moon 7:44 PM CDT (10/14) 8:09 AM CDT (10/14)
Length of Visible Light 12h 09m
Length of Day
11h 16m
Full, 99% of the Moon is Illuminated
Oct 14
Full
Oct 21
Last Quarter
Oct 27
New
Nov 4
First Quarter
Nov 12
Full

Hourly Weather History & Observations

Time (CDT) Temp. Windchill Dew Point Humidity Pressure Visibility Wind Dir Wind Speed Gust Speed Precip Events Conditions
12:56 AM 46.9 °F - 39.9 °F 77% 29.99 in 10.0 mi East 6.9 mph - N/A   Clear
1:56 AM 45.0 °F 40.6 °F 39.0 °F 80% 29.99 in 10.0 mi East 8.1 mph - N/A   Clear
3:56 AM 46.9 °F - 39.9 °F 77% 29.97 in 10.0 mi ESE 9.2 mph - N/A   Clear
4:56 AM 46.0 °F 41.4 °F 39.9 °F 79% 29.96 in 10.0 mi ESE 9.2 mph - N/A   Clear
5:56 AM 45.0 °F 40.1 °F 39.9 °F 82% 29.97 in 10.0 mi ESE 9.2 mph - N/A   Clear
6:56 AM 44.1 °F 38.6 °F 41.0 °F 89% 29.98 in 10.0 mi SE 10.4 mph - N/A   Clear
7:56 AM 45.0 °F 39.7 °F 42.1 °F 90% 29.98 in 10.0 mi SE 10.4 mph - N/A   Clear
8:56 AM 50.0 °F - 45.0 °F 83% 29.98 in 10.0 mi SE 10.4 mph - N/A   Clear
9:56 AM 57.0 °F - 48.0 °F 72% 29.98 in 10.0 mi SSE 10.4 mph - N/A   Clear
10:56 AM 64.0 °F - 51.1 °F 63% 29.96 in 10.0 mi SSE 12.7 mph - N/A   Clear
11:56 AM 69.1 °F - 52.0 °F 54% 29.94 in 10.0 mi South 16.1 mph 20.7 mph N/A   Clear
12:56 PM 73.0 °F - 52.0 °F 48% 29.90 in 10.0 mi SSE 23.0 mph 28.8 mph N/A   Clear
1:56 PM 75.0 °F - 51.1 °F 43% 29.86 in 10.0 mi South 19.6 mph 26.5 mph N/A   Clear
2:56 PM 75.9 °F - 52.0 °F 43% 29.82 in 10.0 mi SSE 20.7 mph - N/A   Clear
3:56 PM 78.1 °F - 54.0 °F 43% 29.79 in 10.0 mi SSE 20.7 mph 27.6 mph N/A   Clear
4:56 PM 77.0 °F - 54.0 °F 45% 29.77 in 10.0 mi SSE 19.6 mph 29.9 mph N/A   Clear
5:56 PM 73.9 °F - 55.0 °F 52% 29.77 in 10.0 mi South 19.6 mph 26.5 mph N/A   Clear
6:56 PM 70.0 °F - 55.9 °F 61% 29.80 in 10.0 mi SSE 12.7 mph - N/A   Clear
7:54 PM 66.2 °F - 57.2 °F 73% 29.82 in 3.0 mi SSE 8.1 mph - N/A   Haze
7:56 PM 66.0 °F - 57.0 °F 73% 29.81 in 2.5 mi SSE 9.2 mph - N/A   Haze
8:10 PM 64.4 °F - 55.4 °F 73% 29.83 in 10.0 mi SSE 9.2 mph - N/A   Partly Cloudy
8:56 PM 62.1 °F - 55.9 °F 80% 29.82 in 10.0 mi SSE 8.1 mph - N/A   Clear
9:56 PM 60.1 °F - 55.9 °F 86% 29.83 in 10.0 mi SSE 9.2 mph - N/A   Clear
10:56 PM 60.1 °F - 55.9 °F 86% 29.83 in 10.0 mi SSE 8.1 mph - N/A   Clear
11:56 PM 60.1 °F - 57.0 °F 90% 29.85 in 10.0 mi South 6.9 mph - N/A   Clear